Registrering Status Plassering
LN-FAW Operativ Kjeller 

Søk
Kontakt informasjon

Follo flyklubb.
Postboks 226, N-1401 Ski
Epost: post@follo-flyklubb.no

Tel: 47 25 54 90
Du er her: Hovedside

Velkommen til Follo flyklubb

 

Follo flyklubb er en flyklubb med primærbase på Ski flyplass, og sekundærbase (vinterbase) på Rakkestad flyplass. Disse websidene er ment som en informasjonskanal til flyklubbens medlemmer, og andre som måtte være interessert i Follo flyklubbs virksomhet. Har du kommentarer eller bidrag du ønsker å dele med flyklubben, send oss en melding her.

Har noen av flyklubbens medlemmer forslag til turer, aktiviteter eller kurs- og infokvelder dere ønsker at vi deltar på eller avholder, så gi beskjed til styret via epost.

 

Før flyturen: Ta en sjekk på datoer i sertifikatene dine. Husk at det er forskjell på gyldighetsdato for PPL-sertifikatet og klasserettighet, som f.eks. SEP. Her er noen nyttige spørsmål, og litt om rettigheter her.

ENGM 201250Z 16004KT CAVOK 02/M07 Q1013 NOSIG
ENTO 201250Z 12004KT 080V150 CAVOK 04/M09 Q1014 NOSIG
ENRY 201250Z VRB02KT CAVOK 06/M08 Q1015 NOSIG
ENSN 090850Z 20010G22KT 150V240 CAVOK 07/03 Q1000
ENCN 201250Z 05003KT CAVOK 07/00 Q1014
ENZV 201250Z 13010KT 9000 -RA FEW015 BKN020 06/04 Q1012 TEMPO 4000 RADZ BKN012
ENFL 201250Z 12012KT 9999 SCT033 BKN045 05/M01 Q1009
ENFG 220850Z 19007KT CAVOK 06/M03 Q1014
ENNO 201250Z 00000KT CAVOK 03/M02 Q1014
 

Leie av LN-FAW

Follo flyklubbs medlemmer har anledning til å leie LN-FAW, booking skjer via MyWebLog. Husk å loggføre turen etter turen.